Location: Darmstadt
(49.8706°N, 8.6494°E)
Time: 06:28:11
(UTC+01:00)

USA 215 - Pass Details

Date: 31 October 2020
Orbit: 1102 x 1106 km, 123.0° (Epoch: 28 November)

Event Time Altitude Azimuth Distance (km) Brightness Sun altitude
Exits shadow 17:41:16 - 66° (ENE) 3,209 5.0 -6.6°
Reaches altitude 10° 17:41:56 10° 65° (ENE) 2,965 4.9 -6.7°
Maximum altitude 17:48:10 50° 353° (N) 1,384 3.8 -7.7°
Drops below altitude 10° 17:54:25 10° 280° (W) 2,964 6.8 -8.7°
Sets 17:56:58 0° 276° (W) 3,921 7.8 -9.1°
